Location: Arapaho Elementary School
(32.9607°N, 96.7625°W)
Time: 19:47:44
(UTC+00:00)

H-2A R/B (2) - Pass Details

Date: 28 June 2022
Orbit: 428 x 34396 km, 28.9° (Epoch: 07 August)

Event Time Altitude Azimuth Distance (km) Brightness Sun altitude
Rises 05:28:48 0° 139° (SE) 23,492 9.1 -31.9°
Reaches altitude 10° 07:20:36 10° 134° (SE) 35,560 10.1 -32.5°
Maximum altitude 12:54:55 47° 139° (SE) 17,528 9.3 17.3°
Drops below altitude 10° 13:46:21 10° 86° (E) 8,179 9.0 27.8°
Sets 13:50:14 0° 80° (E) 8,027 8.5 28.6°
